Regional Weather Roundup
Issued by NWS Columbia, SC

Home | Current Version | Previous Version | Text Only | Print | Product List | Glossary On
Versions: 1 2 3 4 5 6 7 8 9 10 11 12 13 14 15 16 17 18 19 20 21 22 23 24 25 26 27 28 29 30 31 32 33 34 35 36 37 38 39 40 41 42 43 44 45 46 47 48 49 50
000
ASUS42 KCAE 020410
RWRCAE
REGIONAL WEATHER ROUNDUP
NATIONAL WEATHER SERVICE COLUMBIA SC
1200 AM EDT SUN AUG 02 2015

NOTE: "FAIR" INDICATES FEW OR NO CLOUDS BELOW 12,000 FEET WITH NO
SIGNIFICANT WEATHER AND/OR OBSTRUCTIONS TO VISIBILITY.

NOT ALL STATIONS ARE QUALITY CONTROLLED BY THE NATIONAL
WEATHER SERVICE. USE DATA WITH CAUTION...ESPECIALLY
DEWPOINT OBSERVATIONS.

SCZ001>056-GAZ040-063>065-077-020500-
...UPSTATE SOUTH CAROLINA...

CITY           SKY/WX    TMP DP  RH WIND       PRES   REMARKS
ANDERSON       CLEAR     72  63  73 CALM      29.95S
SPARTANBURG      N/A     75  61  60 N3        29.95F
CLEMSON        CLEAR     80  59  48 N5        29.97S
GREENVILLE     CLEAR     77  55  46 N7        29.97S
GREENWOOD      CLEAR     74  65  73 SW5       29.96R
GREER          CLEAR     77  56  48 N3        29.95S
ROCK HILL      CLEAR     70  64  81 CALM      29.95S
CHESTER        CLEAR     75  61  60 N5        29.95R
LAURENS        CLEAR     72  63  73 CALM      29.95S


...CENTRAL SOUTH CAROLINA...

CITY           SKY/WX    TMP DP  RH WIND       PRES   REMARKS
COLUMBIA APT   PTCLDY    81  69  67 SE7       29.93R
COLUMBIA OWENS CLEAR     80  70  71 S5        29.94S
DARLINGTON     CLEAR     81  70  69 S6        29.93S
FLORENCE       MOCLDY    80  75  84 S7        29.92S
MCENTIRE ANGB  PTCLDY    79  71  78 S7        29.94S
ORANGEBURG     PTCLDY    76  72  87 CALM      29.94S
SUMTER SHAW    CLEAR     78  71  79 S6        29.92S
NEWBERRY       CLEAR     73  66  78 SE3       29.97R
AIKEN          FAIR      77  68  73 CALM      29.97S
BARNWELL       MOCLDY    75  73  94 CALM      29.94S
MANNING        HVY RAIN  79  72  78 CALM      29.93F
CAMDEN         FAIR      81  72  74 S6        29.94R
LANCASTER      CLEAR     73  66  78 CALM      29.93S
WINNSBORO      PTCLDY    79  70  73 S3        29.94R


...EASTERN AND COASTAL SOUTH CAROLINA...

CITY           SKY/WX    TMP DP  RH WIND       PRES   REMARKS
MYRTLE BEACH   CLEAR     79  72  78 SW5       29.95S
N MYRTLE BCH   CLEAR     81  74  79 S9        29.93R
CONWAY         FAIR      73  73 100 CALM      29.94R FOG
MARION         MOCLDY    79  72  78 CALM      29.94S
HARTSVILLE     FAIR      79  72  78 SW5       29.93R
FLORENCE       MOCLDY    80  75  84 S7        29.92S
DARLINGTON     CLEAR     81  70  69 S6        29.93S
CHARLESTON APT PTCLDY    77  73  87 CALM      29.93S
MOUNT PLEASANT LGT RAIN  75  75 100 CALM      29.93S
WALTERBORO     CLEAR     77  73  88 CALM      29.94S
BEAUFORT       PTCLDY    78  76  93 CALM      29.92F


...EASTERN GEORGIA...

CITY           SKY/WX    TMP DP  RH WIND       PRES   REMARKS
AUGUSTA BUSH F CLEAR     75  73  93 E3        29.92S
AUGUSTA DANIEL PTCLDY    79  72  79 SE3       29.94S
THOMSON        PTCLDY    77  74  92 CALM      29.97S
WASHINGTON     FAIR      77  70  78 W3        29.94S
SYLVANIA       MOCLDY    76  76  99 CALM      29.93F
STATESBORO     MOCLDY    75  32  20 CALM      29.92F
SAVANNAH       PTCLDY    79  75  87 CALM      29.91F


...SOUTHERN NORTH CAROLINA...

CITY           SKY/WX    TMP DP  RH WIND       PRES   REMARKS
CHARLOTTE      CLEAR     75  56  51 N3        29.95S
MONROE         PTCLDY    77  61  57 CALM      29.94R
WADESBORO      CLEAR     71  60  68 CALM      29.92R
ROCKINGHAM     CLEAR     75  60  59 SE7       29.92S
RUTHERFORDTON  CLEAR     70  58  64 CALM      29.98S
ASHEVILLE      CLEAR     66  58  75 NW6       30.05F

$$


USA.gov is the U.S. government's official web portal to all federal, state and local government web resources and services.